EGV1339 EGLL-EGCC

Flight info

Callsign EGV1339
Flight time 0h 33m
Altitude 18000
Route ULTIB T420 ELVOS
Aircraft A346/H-SDE2E3FGHIJ3J4J5M1RWXY/LB1D1

Departure

Time 2026-05-05 18:29
Airport London Heathrow Airport (EGLL)

Arrival

Time 2026-05-05 19:02
Airport Manchester Airport (EGCC)
Time Latitude Longitude Altitude Speed Heading
2026-05-05 18:08 51.46986 -0.46982 96 ft 0 kts 270°
2026-05-05 18:17 51.46986 -0.46970 95 ft 0 kts 270°
2026-05-05 18:18 51.46986 -0.46929 96 ft 0 kts 270°
2026-05-05 18:18 51.46987 -0.46888 96 ft 0 kts 260°
2026-05-05 18:18 51.46996 -0.46865 96 ft 0 kts 218°
2026-05-05 18:18 51.47011 -0.46856 95 ft 0 kts 185°
2026-05-05 18:23 51.46966 -0.46862 96 ft 11 kts 184°
2026-05-05 18:23 51.46875 -0.46862 97 ft 15 kts 180°
2026-05-05 18:23 51.46755 -0.46903 97 ft 16 kts 239°
2026-05-05 18:23 51.46747 -0.47094 98 ft 19 kts 270°
2026-05-05 18:24 51.46746 -0.47322 98 ft 22 kts 269°
2026-05-05 18:24 51.46745 -0.47578 94 ft 24 kts 270°
2026-05-05 18:24 51.46744 -0.47863 95 ft 26 kts 270°
2026-05-05 18:24 51.46743 -0.48036 95 ft 4 kts 269°
2026-05-05 18:25 51.46743 -0.48069 95 ft 0 kts 269°
2026-05-05 18:25 51.46743 -0.48082 96 ft 9 kts 270°
2026-05-05 18:26 51.46743 -0.48202 95 ft 11 kts 270°
2026-05-05 18:26 51.46743 -0.48340 95 ft 14 kts 269°
2026-05-05 18:26 51.46701 -0.48453 97 ft 13 kts 198°
2026-05-05 18:26 51.46600 -0.48466 97 ft 16 kts 180°
2026-05-05 18:27 51.46506 -0.48455 98 ft 11 kts 150°
2026-05-05 18:27 51.46481 -0.48344 97 ft 11 kts 91°
2026-05-05 18:27 51.46480 -0.48261 97 ft 0 kts 90°
2026-05-05 18:28 51.46481 -0.47658 94 ft 87 kts 90°
2026-05-05 18:28 51.46484 -0.46334 100 ft 147 kts 89°
2026-05-05 18:28 51.46478 -0.44436 229 ft 185 kts 88°
2026-05-05 18:29 51.46487 -0.42311 890 ft 190 kts 84°
2026-05-05 18:29 51.46867 -0.40368 1813 ft 180 kts 53°
2026-05-05 18:29 51.47682 -0.38805 2485 ft 187 kts 48°
2026-05-05 18:29 51.48583 -0.37166 2922 ft 204 kts 48°
2026-05-05 18:30 51.49532 -0.35394 3330 ft 221 kts 49°
2026-05-05 18:30 51.50587 -0.33366 3715 ft 242 kts 49°
2026-05-05 18:30 51.51692 -0.31205 4328 ft 256 kts 50°
2026-05-05 18:30 51.52680 -0.28792 5152 ft 261 kts 64°
2026-05-05 18:31 51.53302 -0.26012 5753 ft 265 kts 71°
2026-05-05 18:31 51.53941 -0.23220 5974 ft 266 kts 56°
2026-05-05 18:31 51.55279 -0.21275 5979 ft 262 kts 21°
2026-05-05 18:31 51.57061 -0.20818 5996 ft 262 kts 354°
2026-05-05 18:32 51.58798 -0.21659 6090 ft 263 kts 333°
2026-05-05 18:32 51.60406 -0.23085 6076 ft 263 kts 332°
2026-05-05 18:32 51.62021 -0.24521 6082 ft 263 kts 333°
2026-05-05 18:32 51.63637 -0.25909 6080 ft 263 kts 333°
2026-05-05 18:33 51.65263 -0.27272 6076 ft 263 kts 333°
2026-05-05 18:33 51.66876 -0.28726 6123 ft 269 kts 330°
2026-05-05 18:33 51.68513 -0.30294 6796 ft 275 kts 330°
2026-05-05 18:33 51.70118 -0.31840 8001 ft 269 kts 329°
2026-05-05 18:34 51.71726 -0.33391 9097 ft 271 kts 329°
2026-05-05 18:34 51.73360 -0.34970 10045 ft 276 kts 329°
2026-05-05 18:34 51.75036 -0.36592 10766 ft 288 kts 329°
2026-05-05 18:34 51.76808 -0.38309 11292 ft 306 kts 329°
2026-05-05 18:35 51.78703 -0.40146 11748 ft 325 kts 329°
2026-05-05 18:35 51.80694 -0.42075 12232 ft 343 kts 329°
2026-05-05 18:35 51.82802 -0.44109 12703 ft 361 kts 328°
2026-05-05 18:35 51.85005 -0.46240 13265 ft 376 kts 328°
2026-05-05 18:36 51.87270 -0.48446 14015 ft 383 kts 327°
2026-05-05 18:36 51.89569 -0.50685 14787 ft 388 kts 328°
2026-05-05 18:36 51.91895 -0.52954 15564 ft 394 kts 328°
2026-05-05 18:36 51.94262 -0.55260 16308 ft 400 kts 328°
2026-05-05 18:37 51.96664 -0.57602 17065 ft 405 kts 328°
2026-05-05 18:37 51.99096 -0.59982 17678 ft 411 kts 328°
2026-05-05 18:37 52.01555 -0.62390 17953 ft 414 kts 328°
2026-05-05 18:37 52.03189 -0.63991 17948 ft 414 kts 328°
2026-05-05 18:38 52.06495 -0.67219 17957 ft 414 kts 328°
2026-05-05 18:38 52.08960 -0.69640 17957 ft 414 kts 327°
2026-05-05 18:38 52.11423 -0.72069 17960 ft 413 kts 327°
2026-05-05 18:38 52.13884 -0.74497 17959 ft 413 kts 328°
2026-05-05 18:39 52.16344 -0.76924 17960 ft 413 kts 328°
2026-05-05 18:39 52.18806 -0.79360 17963 ft 413 kts 327°
2026-05-05 18:39 52.21267 -0.81793 17963 ft 414 kts 327°
2026-05-05 18:39 52.23730 -0.84230 17963 ft 414 kts 327°
2026-05-05 18:40 52.26191 -0.86672 17962 ft 414 kts 328°
2026-05-05 18:40 52.28651 -0.89113 17976 ft 413 kts 328°
2026-05-05 18:40 52.31107 -0.91547 17970 ft 411 kts 328°
2026-05-05 18:40 52.33549 -0.93973 17977 ft 410 kts 327°
2026-05-05 18:41 52.35988 -0.96410 17976 ft 410 kts 326°
2026-05-05 18:41 52.38426 -0.98842 17978 ft 410 kts 327°
2026-05-05 18:41 52.40825 -1.01254 17980 ft 410 kts 327°
2026-05-05 18:41 52.43257 -1.03691 17979 ft 410 kts 327°
2026-05-05 18:42 52.45690 -1.06127 17979 ft 409 kts 327°
2026-05-05 18:42 52.48121 -1.08565 17986 ft 409 kts 327°
2026-05-05 18:42 52.50551 -1.11005 17989 ft 409 kts 327°
2026-05-05 18:42 52.52982 -1.13450 17996 ft 409 kts 327°
2026-05-05 18:43 52.55408 -1.15892 17991 ft 408 kts 327°
2026-05-05 18:43 52.57830 -1.18336 17995 ft 408 kts 327°
2026-05-05 18:43 52.60253 -1.20775 17993 ft 408 kts 327°
2026-05-05 18:43 52.62671 -1.23220 17999 ft 408 kts 326°
2026-05-05 18:44 52.65088 -1.25672 17998 ft 408 kts 326°
2026-05-05 18:44 52.67505 -1.28128 17999 ft 408 kts 327°
2026-05-05 18:44 52.69925 -1.30583 17997 ft 408 kts 327°
2026-05-05 18:44 52.72345 -1.33038 17997 ft 408 kts 326°
2026-05-05 18:45 52.74763 -1.35495 17998 ft 408 kts 326°
2026-05-05 18:45 52.77181 -1.37953 18007 ft 407 kts 326°
2026-05-05 18:45 52.79582 -1.40406 17998 ft 405 kts 326°
2026-05-05 18:45 52.81984 -1.42866 17892 ft 406 kts 326°
2026-05-05 18:46 52.84379 -1.45323 17422 ft 403 kts 326°
2026-05-05 18:46 52.86755 -1.47756 16853 ft 400 kts 326°
2026-05-05 18:46 52.89112 -1.50177 16209 ft 398 kts 326°
2026-05-05 18:46 52.91460 -1.52593 15559 ft 397 kts 327°
2026-05-05 18:47 52.93815 -1.55023 14837 ft 398 kts 327°
2026-05-05 18:47 52.96145 -1.57420 14409 ft 391 kts 327°
2026-05-05 18:47 52.98420 -1.59764 13979 ft 385 kts 327°
2026-05-05 18:47 53.00680 -1.62096 13514 ft 380 kts 327°
2026-05-05 18:48 53.02909 -1.64399 13031 ft 374 kts 327°
2026-05-05 18:48 53.05028 -1.66854 12496 ft 369 kts 320°
2026-05-05 18:48 53.06868 -1.69802 11912 ft 366 kts 312°
2026-05-05 18:48 53.08535 -1.72977 11441 ft 361 kts 310°
2026-05-05 18:49 53.10149 -1.76137 11065 ft 353 kts 310°
2026-05-05 18:49 53.11701 -1.79174 10616 ft 334 kts 310°
2026-05-05 18:49 53.13161 -1.82024 10229 ft 314 kts 310°
2026-05-05 18:49 53.14543 -1.84717 9885 ft 297 kts 310°
2026-05-05 18:50 53.15854 -1.87270 9515 ft 282 kts 310°
2026-05-05 18:50 53.17095 -1.89688 9218 ft 267 kts 310°
2026-05-05 18:50 53.18273 -1.91987 8940 ft 257 kts 310°
2026-05-05 18:50 53.19462 -1.94329 8670 ft 269 kts 310°
2026-05-05 18:51 53.20675 -1.96730 8422 ft 269 kts 310°
2026-05-05 18:51 53.21878 -1.99114 8157 ft 266 kts 310°
2026-05-05 18:51 53.23053 -2.01467 8062 ft 264 kts 307°
2026-05-05 18:51 53.23801 -2.04252 8018 ft 266 kts 279°
2026-05-05 18:52 53.23805 -2.06298 8012 ft 269 kts 262°
2026-05-05 18:52 53.23281 -2.09321 8033 ft 271 kts 251°
2026-05-05 18:52 53.22622 -2.12225 7858 ft 264 kts 250°
2026-05-05 18:52 53.21962 -2.15040 7691 ft 256 kts 250°
2026-05-05 18:53 53.21318 -2.17765 7532 ft 248 kts 250°
2026-05-05 18:53 53.20687 -2.20409 7316 ft 244 kts 250°
2026-05-05 18:53 53.20068 -2.23020 7115 ft 238 kts 250°
2026-05-05 18:53 53.19466 -2.25551 6952 ft 231 kts 250°
2026-05-05 18:54 53.18884 -2.28008 6817 ft 224 kts 250°
2026-05-05 18:54 53.18321 -2.30416 6571 ft 222 kts 250°
2026-05-05 18:54 53.17769 -2.32802 6307 ft 219 kts 250°
2026-05-05 18:54 53.17229 -2.35181 5942 ft 219 kts 250°
2026-05-05 18:55 53.16686 -2.37570 5556 ft 221 kts 250°
2026-05-05 18:55 53.16140 -2.39971 5207 ft 221 kts 250°
2026-05-05 18:55 53.15601 -2.42353 5034 ft 220 kts 250°
2026-05-05 18:55 53.15054 -2.44757 5037 ft 222 kts 250°
2026-05-05 18:56 53.14590 -2.47204 5021 ft 221 kts 265°
2026-05-05 18:56 53.14867 -2.49654 5011 ft 215 kts 300°
2026-05-05 18:56 53.15849 -2.51374 5004 ft 197 kts 325°
2026-05-05 18:56 53.16959 -2.52659 4740 ft 194 kts 329°
2026-05-05 18:57 53.18088 -2.53901 4424 ft 194 kts 331°
2026-05-05 18:57 53.19298 -2.54804 4118 ft 190 kts 350°
2026-05-05 18:57 53.20582 -2.54893 3930 ft 181 kts
2026-05-05 18:57 53.21712 -2.54161 3748 ft 172 kts 35°
2026-05-05 18:58 53.22577 -2.52858 3542 ft 164 kts 45°
2026-05-05 18:58 53.23330 -2.51484 3346 ft 155 kts 50°
2026-05-05 18:58 53.24025 -2.50113 3166 ft 154 kts 52°
2026-05-05 18:58 53.24704 -2.48725 2949 ft 153 kts 52°
2026-05-05 18:59 53.25370 -2.47346 2731 ft 152 kts 52°
2026-05-05 18:59 53.26026 -2.45978 2520 ft 150 kts 52°
2026-05-05 18:59 53.26677 -2.44620 2312 ft 149 kts 53°
2026-05-05 18:59 53.27322 -2.43273 2118 ft 149 kts 52°
2026-05-05 19:00 53.27970 -2.41922 1910 ft 147 kts 52°
2026-05-05 19:00 53.28600 -2.40611 1715 ft 146 kts 51°
2026-05-05 19:00 53.29249 -2.39264 1500 ft 146 kts 51°
2026-05-05 19:00 53.29890 -2.37933 1311 ft 147 kts 51°
2026-05-05 19:01 53.30528 -2.36606 1088 ft 146 kts 51°
2026-05-05 19:01 53.31158 -2.35297 893 ft 146 kts 51°
2026-05-05 19:01 53.31801 -2.33955 650 ft 145 kts 51°
2026-05-05 19:01 53.32430 -2.32664 451 ft 144 kts 51°
2026-05-05 19:02 53.33060 -2.31350 317 ft 141 kts 51°
2026-05-05 19:02 53.33649 -2.30131 245 ft 122 kts 51°
2026-05-05 19:02 53.34059 -2.29286 242 ft 60 kts 51°
2026-05-05 19:02 53.34214 -2.28960 240 ft 25 kts 51°
2026-05-05 19:03 53.34330 -2.28728 238 ft 25 kts 42°
2026-05-05 19:03 53.34468 -2.28564 240 ft 24 kts 27°
2026-05-05 19:03 53.34625 -2.28457 241 ft 25 kts 21°
2026-05-05 19:03 53.34745 -2.28331 241 ft 18 kts 48°
2026-05-05 19:04 53.34828 -2.28159 241 ft 20 kts 51°
2026-05-05 19:04 53.34922 -2.27962 241 ft 23 kts 51°
2026-05-05 19:04 53.35028 -2.27744 241 ft 25 kts 51°
2026-05-05 19:04 53.35140 -2.27512 241 ft 26 kts 51°
2026-05-05 19:05 53.35258 -2.27268 241 ft 25 kts 51°
2026-05-05 19:05 53.35329 -2.27197 242 ft 0 kts
2026-05-05 19:06 53.35332 -2.27197 242 ft 5 kts
2026-05-05 19:06 53.35386 -2.27215 242 ft 9 kts 334°
2026-05-05 19:06 53.35444 -2.27285 248 ft 13 kts 320°
2026-05-05 19:07 53.35539 -2.27412 243 ft 22 kts 321°
2026-05-05 19:07 53.35615 -2.27516 241 ft 0 kts 321°
2026-05-05 19:08 53.35666 -2.27585 241 ft 14 kts 323°
2026-05-05 19:08 53.35765 -2.27664 241 ft 17 kts 330°
2026-05-05 19:08 53.35856 -2.27729 241 ft 13 kts 354°
2026-05-05 19:09 53.35955 -2.27734 241 ft 16 kts 346°
2026-05-05 19:09 53.36055 -2.27843 241 ft 19 kts 324°
2026-05-05 19:09 53.36159 -2.28002 241 ft 22 kts 316°
2026-05-05 19:09 53.36272 -2.28193 241 ft 24 kts 315°
2026-05-05 19:10 53.36386 -2.28384 241 ft 21 kts 315°
2026-05-05 19:10 53.36466 -2.28553 241 ft 18 kts 315°
2026-05-05 19:10 53.36563 -2.28720 241 ft 16 kts 310°
2026-05-05 19:10 53.36628 -2.28761 241 ft 11 kts 22°
2026-05-05 19:11 53.36681 -2.28691 241 ft 0 kts 44°
2026-05-05 19:11 53.36688 -2.28670 241 ft 6 kts 72°
2026-05-05 19:11 53.36682 -2.28619 241 ft 0 kts 115°
2026-05-05 19:11 53.36677 -2.28605 241 ft 2 kts 127°
2026-05-05 19:12 53.36659 -2.28573 241 ft 5 kts 133°
2026-05-05 19:12 53.36656 -2.28567 241 ft 0 kts 134°